Hourly Weather Roundup
Issued by NWS Central Illinois

Home | Current Version | Previous Version | Text Only | Print | Product List | Glossary On
Versions: 1 2 3 4 5 6 7 8 9 10 11 12 13 14 15 16 17 18 19 20 21 22 23 24 25 26 27 28 29 30 31 32 33 34 35 36 37 38 39 40 41 42 43 44 45 46 47 48 49 50
000
NZUS43 KILX 010110
HWRILX

AREA WEATHER ROUNDUP
NATIONAL WEATHER SERVICE, LINCOLN IL
800 PM CDT FRI JUL 31 2015


CITY           SKY/WX    TMP DP  RH WIND       PRES   REMARKS
BLOOMINGTON    CLEAR     81  59  47 NW13      30.01S HX  81
CHAMPAIGN      CLEAR     76  66  71 W5        30.00S
DANVILLE       CLEAR     74  64  69 W6        29.95S
DECATUR        CLEAR     83  56  39 NW9       30.00S HX  82
EFFINGHAM      PTCLDY    80  65  60 W5        30.01S HX  82
FLORA          CLEAR     82  65  58 NW5       30.00S HX  83
GALESBURG      CLOUDY    77  65  64 W6        30.02S
JACKSONVILLE   CLEAR     81  72  76 CALM      30.01F HX  85
LACON          CLEAR     78  59  51 NW7       29.99R HX  80
LAWRENCEVILLE  CLEAR     83  68  60 W3        29.99S HX  86
LITCHFIELD     CLEAR     76  69  79 W5        30.02S
$$


CITY           SKY/WX    TMP DP  RH WIND       PRES   REMARKS
LINCOLN        CLEAR     82  61  48 CALM      29.99S HX  83
MACOMB         CLEAR     79  66  64 NW5       30.04S HX  81
MATTOON        CLEAR     78  64  61 CALM      29.99S HX  80
MT CARMEL AP   CLEAR     81  72  74 W3        29.99S HX  84
OLNEY-NOBLE AP CLEAR     79  70  73 CALM      30.00S HX  81
PARIS          CLEAR     76  62  62 W5        29.99S
PEORIA         CLEAR     82  64  54 NW5       30.00S HX  83
PONTIAC        CLEAR     76  66  71 W5        29.99S
RANTOUL        CLEAR     79  64  60 NW7       29.99S HX  80
ROBINSON       CLEAR     78  70  77 CALM      30.00S HX  80
SPRINGFIELD    CLEAR     80  72  76 W6        30.01R HX  84
TAYLORVILLE    PTCLDY    77  70  78 W5        30.00S
$$

...REGIONAL REPORTS...


CITY           SKY/WX    TMP DP  RH WIND       PRES   REMARKS
CHICAGO O`HARE CLEAR     80  48  32 NW10      29.94R
KANKAKEE       CLEAR     79  56  44 NW7       29.97R HX  80
MOLINE         CLEAR     80  55  42 NW10      30.01R HX  80
MOUNT STERLING NOT AVBL
MOUNT VERNON   CLEAR     81  66  61 CALM      30.01S HX  83
PITTSFIELD     PTCLDY    81  68  65 CALM      30.03F HX  83
QUINCY         MOCLDY    80  68  66 W5        30.02S HX  83
ROCKFORD       PTCLDY    77  49  37 NW12      29.98R
$$


CITY           SKY/WX    TMP DP  RH WIND       PRES   REMARKS
BURLINGTON     MOCLDY    79  65  62 N5        30.02S HX  81
CEDAR RAPIDS   CLEAR     75  64  68 W5        30.03S
DES MOINES     PTCLDY    84  59  42 E6        30.03S HX  84
KIRKSVILLE     CLOUDY    80  71  74 S3        30.04F HX  84
OTTUMWA        CLEAR     80  66  62 N6        30.02S HX  82
ST LOUIS       PTCLDY    86  61  42 N5        30.02R HX  86
$$


CITY           SKY/WX    TMP DP  RH WIND       PRES   REMARKS
TERRE HAUTE    CLEAR     80  58  46 NW5       29.98S HX  80
EVANSVILLE     CLEAR     84  68  58 W3        29.99F HX  87
INDIANAPOLIS   PTCLDY    79  58  48 W10       29.96S HX  80
LAFAYETTE      CLEAR     74  61  63 W6        29.95S
MADISON        PTCLDY    76  49  38 W5        29.96R
MILWAUKEE      PTCLDY    80  47  31 NW14      29.92S
$$




USA.gov is the U.S. government's official web portal to all federal, state and local government web resources and services.